FW3821 Weather Reports


Display with metric or nautical units.
time (UTC)temp
F
wind
direction
speed
MPH
gust
MPH
rain 1hr
in
rain 24hr
in
rain mn
in
humidity
%
barometer
mb
20260506221541 58 97 1.0 4.0 0.02 0.34 0.34 93 1006.2
20260506220040 57 317 2.0 6.0 0.02 0.34 0.34 93 1006.2
20260506214544 57 54 0.0 4.0 0.02 0.34 0.34 93 1006.3
20260506213040 57 6 1.0 6.0 0.02 0.34 0.34 94 1006.3
20260506211539 57 95 1.0 5.0 0.01 0.32 0.32 93 1006.2
20260506210037 57 79 1.0 7.0 0.02 0.32 0.32 93 1006.4
20260506204540 57 275 1.0 6.0 0.03 0.32 0.32 93 1006.4
20260506203039 57 97 1.0 5.0 0.05 0.32 0.32 94 1006.5
20260506201538 57 104 1.0 5.0 0.05 0.31 0.31 94 1006.8
20260506200038 57 37 1.0 5.0 0.07 0.30 0.30 94 1006.9
20260506194530 57 190 1.0 5.0 0.07 0.28 0.28 93 1007.0
20260506193028 57 90 1.0 6.0 0.06 0.27 0.27 93 1007.3
20260506191527 58 98 1.0 11.0 0.07 0.26 0.26 93 1007.3
20260506190026 58 126 1.0 6.0 0.07 0.23 0.23 93 1007.2
20260506184533 58 351 1.0 6.0 0.06 0.21 0.21 93 1007.3
20260506183026 58 35 1.0 4.0 0.07 0.21 0.21 93 1007.4
20260506181523 58 95 1.0 3.0 0.09 0.19 0.19 93 1007.6
20260506180026 59 25 0.0 4.0 0.10 0.16 0.16 93 1007.8
20260506174521 58 103 0.0 4.0 0.13 0.15 0.15 93 1008.0
20260506173021 58 1 0.0 3.0 0.14 0.14 0.14 93 1008.3
20260506171516 58 8 0.0 3.0 0.10 0.10 0.10 92 1008.7
20260506170015 59 8 0.0 2.0 0.06 0.06 0.06 91 1008.9
20260506164512 59 119 0.0 4.0 0.02 0.02 0.02 89 1008.9
20260506163016 59 90 0.0 3.0 0.00 0.00 0.00 87 1008.9
20260506161511 60 157 1.0 5.0 0.00 0.00 0.00 85 1009.0
20260506160009 61 173 0.0 5.0 0.00 0.00 0.00 84 1009.1
20260506154506 60 78 0.0 4.0 0.00 0.00 0.00 83 1009.3
20260506153005 59 82 0.0 3.0 0.00 0.00 0.00 85 1009.5
20260506151506 59 13 0.0 5.0 0.00 0.00 0.00 84 1009.8
20260506150005 59 74 0.0 4.0 0.00 0.00 0.00 84 1010.0
20260506144504 59 201 0.0 4.0 0.00 0.00 0.00 83 1009.8
20260506143004 59 13 0.0 3.0 0.00 0.00 0.00 83 1009.9
20260506141503 59 90 1.0 6.0 0.00 0.00 0.00 83 1009.8
20260506140003 59 79 2.0 7.0 0.00 0.00 0.00 83 1009.9
20260506134504 60 155 4.0 10.0 0.00 0.00 0.00 81 1009.5
20260506133002 60 91 1.0 5.0 0.00 0.00 0.00 81 1009.6
20260506131604 60 1 0.0 6.0 0.00 0.00 0.00 82 1009.4
20260506130131 59 34 1.0 6.0 0.00 0.00 0.00 83 1009.7
20260506124559 58 289 1.0 8.0 0.00 0.00 0.00 85 1009.9
20260506123053 57 103 0.0 3.0 0.00 0.00 0.00 87 1010.2
20260506121553 56 296 0.0 5.0 0.00 0.00 0.00 87 1010.1
20260506120056 56 126 1.0 6.0 0.00 0.00 0.00 88 1010.2
20260506114552 55 79 0.0 4.0 0.00 0.00 0.00 89 1009.9
20260506113055 54 167 0.0 5.0 0.00 0.00 0.00 90 1010.1
20260506111549 54 79 1.0 4.0 0.00 0.00 0.00 90 1009.9
20260506110055 53 123 1.0 5.0 0.00 0.00 0.00 91 1010.1
20260506104553 53 32 0.0 4.0 0.00 0.00 0.00 91 1010.2
20260506103055 52 87 0.0 7.0 0.00 0.00 0.00 92 1010.0
20260506101556 52 46 0.0 2.0 0.00 0.00 0.00 92 1010.0
20260506094544 52 82 0.0 4.0 0.00 0.00 0.00 91 1009.7
20260506093047 52 39 1.0 5.0 0.00 0.00 0.00 91 1009.7
20260506091541 52 95 1.0 4.0 0.00 0.00 0.00 90 1009.9
20260506090040 52 158 1.0 6.0 0.00 0.00 0.00 89 1009.9
20260506084559 53 158 2.0 6.0 0.00 0.00 0.00 88 1009.9
20260506083038 53 151 1.0 6.0 0.00 0.00 0.00 87 1010.0
20260506081541 53 124 2.0 6.0 0.00 0.00 0.00 86 1010.0
20260506073041 54 105 0.0 2.0 0.00 0.00 0.00 83 1010.0
20260506071530 54 68 0.0 3.0 0.00 0.00 0.00 82 1010.2
20260506061524 56 113 1.0 3.0 0.00 0.00 0.00 79 1010.0
20260506044538 57 110 1.0 7.0 0.00 0.00 0.00 75 1010.4
20260506043012 58 47 1.0 4.0 0.00 0.00 0.00 75 1010.3
20260506041510 58 39 1.0 4.0 0.00 0.00 0.00 74 1010.2
20260506040008 58 105 1.0 7.0 0.00 0.00 0.00 74 1010.4
20260506034520 59 115 0.0 4.0 0.00 0.00 0.00 73 1010.3
20260506033008 59 124 1.0 7.0 0.00 0.00 0.00 72 1010.4
20260506031507 60 338 0.0 5.0 0.00 0.00 0.00 72 1010.2
20260506030007 60 84 3.0 10.0 0.00 0.00 0.00 71 1010.3
20260506024507 61 118 0.0 3.0 0.00 0.00 0.00 70 1010.3
20260506023005 62 123 0.0 4.0 0.00 0.00 0.00 70 1010.5
20260506021505 62 105 0.0 4.0 0.00 0.00 0.00 68 1010.4
20260506020005 62 17 1.0 5.0 0.00 0.00 0.00 68 1010.4
20260506014504 62 86 0.0 6.0 0.00 0.00 0.00 68 1010.3
20260506013003 63 219 1.0 5.0 0.00 0.00 0.00 68 1010.3
20260506011507 63 122 0.0 3.0 0.00 0.00 0.00 68 1010.1
20260506010005 63 257 0.0 1.0 0.00 0.00 0.00 66 1010.0
20260506004503 64 146 0.0 1.0 0.00 0.00 0.00 67 1010.0
20260506003002 64 138 0.0 1.0 0.00 0.00 0.00 67 1010.0
20260506001501 65 139 0.0 0.0 0.00 0.00 0.00 65 1009.9
20260506000000 66 139 0.0 1.0 0.00 0.00 0.00 63 1009.9
20260505234637 68 99 0.0 2.0 0.00 0.00 0.00 61 1009.6
20260505233112 69 257 1.0 6.0 0.00 0.00 0.00 54 1009.1
20260505231601 71 298 2.0 6.0 0.00 0.00 0.00 51 1008.1
20260505224558 72 275 2.0 9.0 0.00 0.00 0.00 47 1007.6
20260505223057 73 41 3.0 11.0 0.00 0.00 0.00 47 1007.4